User: anonymous   Login
Location: Unspecified
(0.0000°N, 0.0000°E)
Time: 16:05:09
(UTC+00:00)
Language:

NATO 4A - Orbit

View from above orbital plane
View from above orbital plane
View from above satellite
View from above satellite

Ground track
Ground track

The orbit data is extracted from the following two-line orbital elements,

1 21047U 91001A   17116.44857181 -.00000024 +00000-0 +00000-0 0  9996
2 21047 013.0553 017.6917 0002699 178.2976 060.8600 00.98282685095305
Epoch (UTC): 26 April 2017 10:45:56
Eccentricity: 0.0002699
inclination: 13.0553°
perigee height: 36341 km
apogee height: 36365 km
right ascension of ascending node: 17.6917°
argument of perigee: 178.2976°
revolutions per day: 0.98282685
mean anomaly at epoch: 60.8600°
orbit number at epoch: 9530

The dashed part of the orbit path shows where the satellite is in the earth's shadow,  

DLR